Location: Albert Place
(40.7505°N, 111.9230°W)
Time: 13:24:01
(UTC+00:00)

Okean 1 - Pass Details

Date: 13 December 2025
Orbit: 465 x 484 km, 82.5° (Epoch: 17 January)

Event Time Altitude Azimuth Distance (km) Brightness Sun altitude
Exits shadow 13:20:41 30° 297° (WNW) 854 3.7 -15.1°
Maximum altitude 13:21:29 35° 268° (W) 777 3.6 -15.0°
Drops below altitude 10° 13:24:43 10° 201° (SSW) 1,615 5.7 -14.4°
Sets 13:26:54 0° 192° (SSW) 2,487 6.8 -14.0°
